| time (UTC) | temp C | wind direction | speed KPH | gust KPH | rain 1hr cm | rain 24hr cm | rain mn cm | humidity % | barometer mb |
| 20260505181337 | 22 | 189 | 8.0 | 9.7 | 0.00 | 0.00 | 0.00 | 51 | 1013.7 |
| 20260505180833 | 22 | 272 | 4.8 | 4.8 | 0.00 | 0.00 | 0.00 | 50 | 1013.8 |
| 20260505180330 | 22 | 166 | 8.0 | 9.7 | 0.00 | 0.00 | 0.00 | 50 | 1013.9 |
| 20260505175826 | 22 | 288 | 4.8 | 4.8 | 0.00 | 0.00 | 0.00 | 49 | 1014.3 |
| 20260505175323 | 22 | 281 | 3.2 | 3.2 | 0.00 | 0.00 | 0.00 | 49 | 1014.3 |
| 20260505174819 | 22 | 181 | 3.2 | 3.2 | 0.00 | 0.00 | 0.00 | 49 | 1014.4 |
| 20260505174317 | 22 | 206 | 4.8 | 4.8 | 0.00 | 0.00 | 0.00 | 51 | 1014.2 |
| 20260505173812 | 22 | 243 | 8.0 | 9.7 | 0.00 | 0.00 | 0.00 | 52 | 1014.3 |
| 20260505173309 | 22 | 184 | 8.0 | 9.7 | 0.00 | 0.00 | 0.00 | 52 | 1014.4 |
| 20260505172806 | 22 | 275 | 4.8 | 4.8 | 0.00 | 0.00 | 0.00 | 53 | 1014.3 |
| 20260505172306 | 21 | 150 | 0.0 | 0.0 | 0.00 | 0.00 | 0.00 | 54 | 1014.4 |
| 20260505171758 | 21 | 199 | 4.8 | 4.8 | 0.00 | 0.00 | 0.00 | 54 | 1014.5 |
| 20260505171255 | 21 | 241 | 3.2 | 3.2 | 0.00 | 0.00 | 0.00 | 54 | 1014.6 |
| 20260505170752 | 21 | 211 | 4.8 | 8.0 | 0.00 | 0.00 | 0.00 | 53 | 1014.5 |
| 20260505170249 | 21 | 207 | 4.8 | 4.8 | 0.00 | 0.00 | 0.00 | 53 | 1014.8 |
| 20260505165744 | 22 | 195 | 4.8 | 8.0 | 0.00 | 0.00 | 0.00 | 55 | 1014.7 |
| 20260505165240 | 22 | 181 | 4.8 | 4.8 | 0.00 | 0.00 | 0.00 | 55 | 1014.8 |
| 20260505164736 | 21 | 92 | 3.2 | 4.8 | 0.00 | 0.00 | 0.00 | 56 | 1015.1 |
| 20260505164233 | 21 | 334 | 1.6 | 1.6 | 0.00 | 0.00 | 0.00 | 61 | 1014.9 |
| 20260505163731 | 21 | 153 | 3.2 | 3.2 | 0.00 | 0.00 | 0.00 | 60 | 1015.1 |
| 20260505163230 | 21 | 179 | 4.8 | 4.8 | 0.00 | 0.00 | 0.00 | 61 | 1015.2 |
| 20260505162727 | 21 | 184 | 4.8 | 4.8 | 0.00 | 0.00 | 0.00 | 59 | 1015.0 |
| 20260505162224 | 21 | 174 | 1.6 | 1.6 | 0.00 | 0.00 | 0.00 | 57 | 1015.2 |
| 20260505161720 | 21 | 355 | 1.6 | 3.2 | 0.00 | 0.00 | 0.00 | 58 | 1014.9 |
| 20260505161218 | 21 | 106 | 0.0 | 1.6 | 0.00 | 0.00 | 0.00 | 58 | 1015.1 |
| 20260505160715 | 21 | 185 | 3.2 | 4.8 | 0.00 | 0.00 | 0.00 | 56 | 1015.1 |
| 20260505160213 | 21 | 191 | 3.2 | 3.2 | 0.00 | 0.00 | 0.00 | 59 | 1015.3 |
| 20260505153152 | 21 | 159 | 1.6 | 1.6 | 0.00 | 0.00 | 0.00 | 60 | 1015.2 |
| 20260505152649 | 20 | 182 | 3.2 | 3.2 | 0.00 | 0.00 | 0.00 | 60 | 1015.1 |
| 20260505152144 | 20 | 152 | 1.6 | 1.6 | 0.00 | 0.00 | 0.00 | 62 | 1014.9 |
| 20260505151640 | 20 | 158 | 3.2 | 3.2 | 0.00 | 0.00 | 0.00 | 60 | 1015.0 |
| 20260505151138 | 20 | 180 | 1.6 | 1.6 | 0.00 | 0.00 | 0.00 | 59 | 1015.0 |
| 20260505150633 | 20 | 118 | 1.6 | 1.6 | 0.00 | 0.00 | 0.00 | 60 | 1014.9 |
| 20260505150131 | 20 | 126 | 0.0 | 1.6 | 0.00 | 0.00 | 0.00 | 60 | 1015.0 |
| 20260505140559 | 18 | 166 | 1.6 | 3.2 | 0.00 | 0.00 | 0.00 | 65 | 1015.1 |
| 20260505125013 | 16 | 160 | 1.6 | 1.6 | 0.00 | 0.00 | 0.00 | 76 | 1015.1 |
| 20260505124509 | 16 | 156 | 1.6 | 1.6 | 0.00 | 0.00 | 0.00 | 76 | 1015.1 |
| 20260505124006 | 15 | 101 | 0.0 | 0.0 | 0.00 | 0.00 | 0.00 | 77 | 1015.0 |
| 20260505123502 | 15 | 99 | 0.0 | 0.0 | 0.00 | 0.00 | 0.00 | 77 | 1015.1 |
| 20260505122958 | 15 | 116 | 0.0 | 0.0 | 0.00 | 0.00 | 0.00 | 78 | 1014.9 |
| 20260505122455 | 14 | 105 | 0.0 | 0.0 | 0.00 | 0.00 | 0.00 | 81 | 1014.9 |
| 20260505121952 | 14 | 108 | 0.0 | 0.0 | 0.00 | 0.00 | 0.00 | 81 | 1015.0 |
| 20260505121449 | 13 | 123 | 0.0 | 0.0 | 0.00 | 0.00 | 0.00 | 83 | 1014.9 |
| 20260505120945 | 13 | 136 | 1.6 | 1.6 | 0.00 | 0.00 | 0.00 | 84 | 1014.8 |
| 20260505120442 | 13 | 91 | 0.0 | 0.0 | 0.00 | 0.00 | 0.00 | 85 | 1014.7 |
| 20260505115941 | 12 | 91 | 0.0 | 0.0 | 0.00 | 0.00 | 0.00 | 85 | 1014.8 |
| 20260505115438 | 12 | 104 | 0.0 | 0.0 | 0.00 | 0.00 | 0.00 | 86 | 1014.7 |
| 20260505114936 | 12 | 104 | 0.0 | 0.0 | 0.00 | 0.00 | 0.00 | 85 | 1014.7 |
| 20260505114431 | 12 | 123 | 0.0 | 0.0 | 0.00 | 0.00 | 0.00 | 85 | 1014.7 |
| 20260505113928 | 12 | 123 | 0.0 | 0.0 | 0.00 | 0.00 | 0.00 | 85 | 1014.6 |
| 20260505113425 | 12 | 113 | 0.0 | 0.0 | 0.00 | 0.00 | 0.00 | 84 | 1014.8 |
| 20260505112920 | 12 | 114 | 0.0 | 0.0 | 0.00 | 0.00 | 0.00 | 84 | 1014.5 |
| 20260505112418 | 12 | 113 | 0.0 | 0.0 | 0.00 | 0.00 | 0.00 | 84 | 1014.6 |
| 20260505111914 | 12 | 111 | 0.0 | 0.0 | 0.00 | 0.00 | 0.00 | 84 | 1014.3 |
| 20260505111409 | 12 | 90 | 0.0 | 0.0 | 0.00 | 0.00 | 0.00 | 83 | 1014.4 |
| 20260505110906 | 12 | 98 | 0.0 | 0.0 | 0.00 | 0.00 | 0.00 | 83 | 1014.3 |
| 20260505110403 | 11 | 158 | 0.0 | 0.0 | 0.00 | 0.00 | 0.00 | 84 | 1014.2 |
| 20260505101833 | 11 | 108 | 0.0 | 0.0 | 0.00 | 0.00 | 0.00 | 83 | 1014.2 |
| 20260505101328 | 11 | 111 | 0.0 | 0.0 | 0.00 | 0.00 | 0.00 | 82 | 1014.2 |
| 20260505100824 | 12 | 122 | 0.0 | 0.0 | 0.00 | 0.00 | 0.00 | 83 | 1014.4 |
| 20260505100321 | 12 | 121 | 0.0 | 0.0 | 0.00 | 0.00 | 0.00 | 82 | 1014.1 |
| 20260505095817 | 12 | 112 | 0.0 | 0.0 | 0.00 | 0.00 | 0.00 | 81 | 1014.1 |
| 20260505095315 | 12 | 116 | 0.0 | 0.0 | 0.00 | 0.00 | 0.00 | 81 | 1014.2 |
| 20260505094810 | 12 | 97 | 0.0 | 0.0 | 0.00 | 0.00 | 0.00 | 81 | 1014.1 |
| 20260505094307 | 12 | 86 | 0.0 | 0.0 | 0.00 | 0.00 | 0.00 | 80 | 1014.1 |
| 20260505093803 | 12 | 124 | 0.0 | 0.0 | 0.00 | 0.00 | 0.00 | 78 | 1014.2 |
| 20260505093301 | 12 | 124 | 0.0 | 0.0 | 0.00 | 0.00 | 0.00 | 77 | 1014.4 |
| 20260505092757 | 13 | 124 | 0.0 | 0.0 | 0.00 | 0.00 | 0.00 | 76 | 1014.3 |
| 20260505092256 | 13 | 124 | 0.0 | 0.0 | 0.00 | 0.00 | 0.00 | 74 | 1014.4 |
| 20260505091753 | 13 | 79 | 0.0 | 0.0 | 0.00 | 0.00 | 0.00 | 73 | 1014.2 |
| 20260505091251 | 13 | 129 | 0.0 | 0.0 | 0.00 | 0.00 | 0.00 | 73 | 1014.1 |
| 20260505090748 | 14 | 78 | 0.0 | 0.0 | 0.00 | 0.00 | 0.00 | 70 | 1014.4 |
| 20260505090246 | 14 | 86 | 0.0 | 0.0 | 0.00 | 0.00 | 0.00 | 70 | 1014.4 |
| 20260505085743 | 14 | 41 | 1.6 | 1.6 | 0.00 | 0.00 | 0.00 | 70 | 1014.2 |
| 20260505085241 | 14 | 119 | 0.0 | 1.6 | 0.00 | 0.00 | 0.00 | 70 | 1014.0 |
| 20260505084738 | 14 | 132 | 1.6 | 1.6 | 0.00 | 0.00 | 0.00 | 71 | 1013.9 |
| 20260505084238 | 14 | 132 | 0.0 | 0.0 | 0.00 | 0.00 | 0.00 | 70 | 1014.0 |
| 20260505083734 | 14 | 132 | 0.0 | 0.0 | 0.00 | 0.00 | 0.00 | 71 | 1014.0 |
| 20260505083231 | 14 | 132 | 0.0 | 0.0 | 0.00 | 0.00 | 0.00 | 71 | 1014.0 |
| 20260505082726 | 14 | 132 | 0.0 | 0.0 | 0.00 | 0.00 | 0.00 | 71 | 1013.8 |
| 20260505082224 | 14 | 132 | 0.0 | 0.0 | 0.00 | 0.00 | 0.00 | 71 | 1013.7 |
| 20260505081719 | 14 | 132 | 0.0 | 0.0 | 0.00 | 0.00 | 0.00 | 71 | 1013.6 |
| 20260505081218 | 14 | 132 | 0.0 | 0.0 | 0.00 | 0.00 | 0.00 | 71 | 1013.8 |
| 20260505080714 | 14 | 132 | 0.0 | 0.0 | 0.00 | 0.00 | 0.00 | 71 | 1013.6 |
| 20260505080210 | 14 | 132 | 0.0 | 0.0 | 0.00 | 0.00 | 0.00 | 72 | 1013.4 |
| 20260505075706 | 14 | 133 | 0.0 | 0.0 | 0.00 | 0.00 | 0.00 | 72 | 1013.6 |
| 20260505075203 | 15 | 133 | 0.0 | 0.0 | 0.00 | 0.00 | 0.00 | 72 | 1013.5 |
| 20260505074700 | 15 | 133 | 0.0 | 1.6 | 0.00 | 0.00 | 0.00 | 72 | 1013.5 |
| 20260505074157 | 15 | 133 | 0.0 | 0.0 | 0.00 | 0.00 | 0.00 | 71 | 1013.3 |
| 20260505073654 | 15 | 135 | 0.0 | 0.0 | 0.00 | 0.00 | 0.00 | 71 | 1013.6 |
| 20260505073153 | 15 | 136 | 0.0 | 0.0 | 0.00 | 0.00 | 0.00 | 71 | 1013.5 |
| 20260505072648 | 15 | 136 | 0.0 | 0.0 | 0.00 | 0.00 | 0.00 | 71 | 1013.3 |
| 20260505072145 | 15 | 136 | 0.0 | 0.0 | 0.00 | 0.00 | 0.00 | 70 | 1013.9 |
| 20260505071640 | 15 | 136 | 0.0 | 0.0 | 0.00 | 0.00 | 0.00 | 70 | 1013.5 |
| 20260505071138 | 15 | 136 | 0.0 | 0.0 | 0.00 | 0.00 | 0.00 | 69 | 1013.6 |
| 20260505070635 | 15 | 137 | 0.0 | 0.0 | 0.00 | 0.00 | 0.00 | 68 | 1013.5 |
| 20260505070132 | 16 | 137 | 0.0 | 0.0 | 0.00 | 0.00 | 0.00 | 68 | 1013.7 |
| 20260505065627 | 16 | 137 | 0.0 | 1.6 | 0.00 | 0.00 | 0.00 | 67 | 1013.9 |
| 20260505065124 | 16 | 141 | 0.0 | 0.0 | 0.00 | 0.00 | 0.00 | 67 | 1013.8 |
| 20260505064621 | 16 | 144 | 0.0 | 1.6 | 0.00 | 0.00 | 0.00 | 67 | 1013.8 |
| 20260505064120 | 16 | 167 | 0.0 | 1.6 | 0.00 | 0.00 | 0.00 | 66 | 1013.7 |
| 20260505063617 | 16 | 96 | 1.6 | 1.6 | 0.00 | 0.00 | 0.00 | 67 | 1013.7 |
| 20260505063112 | 16 | 267 | 1.6 | 1.6 | 0.00 | 0.00 | 0.00 | 67 | 1013.6 |
| 20260505062609 | 16 | 138 | 0.0 | 0.0 | 0.00 | 0.00 | 0.00 | 67 | 1013.5 |
| 20260505062107 | 16 | 10 | 0.0 | 1.6 | 0.00 | 0.00 | 0.00 | 67 | 1013.6 |
| 20260505061604 | 16 | 71 | 0.0 | 1.6 | 0.00 | 0.00 | 0.00 | 67 | 1013.5 |
| 20260505061102 | 16 | 86 | 0.0 | 0.0 | 0.00 | 0.00 | 0.00 | 67 | 1013.5 |
| 20260505060559 | 16 | 92 | 0.0 | 0.0 | 0.00 | 0.00 | 0.00 | 67 | 1013.7 |
| 20260505060056 | 16 | 139 | 0.0 | 0.0 | 0.00 | 0.00 | 0.00 | 66 | 1013.7 |
| 20260505055551 | 16 | 113 | 0.0 | 0.0 | 0.00 | 0.00 | 0.00 | 66 | 1013.6 |
| 20260505055048 | 16 | 99 | 0.0 | 0.0 | 0.00 | 0.00 | 0.00 | 66 | 1013.5 |
| 20260505054545 | 16 | 77 | 0.0 | 0.0 | 0.00 | 0.00 | 0.00 | 66 | 1013.6 |
| 20260505054043 | 16 | 88 | 0.0 | 0.0 | 0.00 | 0.00 | 0.00 | 66 | 1013.4 |
| 20260505053540 | 16 | 98 | 0.0 | 0.0 | 0.00 | 0.00 | 0.00 | 66 | 1013.5 |
| 20260505053037 | 16 | 90 | 1.6 | 3.2 | 0.00 | 0.00 | 0.00 | 66 | 1013.5 |
| 20260505052533 | 16 | 15 | 1.6 | 1.6 | 0.00 | 0.00 | 0.00 | 65 | 1013.5 |
| 20260505052031 | 16 | 65 | 1.6 | 1.6 | 0.00 | 0.00 | 0.00 | 65 | 1013.4 |
| 20260505051528 | 16 | 85 | 0.0 | 1.6 | 0.00 | 0.00 | 0.00 | 65 | 1013.6 |
| 20260505051026 | 16 | 75 | 0.0 | 0.0 | 0.00 | 0.00 | 0.00 | 64 | 1013.5 |
| 20260505050524 | 16 | 75 | 0.0 | 0.0 | 0.00 | 0.00 | 0.00 | 64 | 1013.5 |
| 20260505041451 | 17 | 89 | 0.0 | 0.0 | 0.00 | 0.00 | 0.00 | 62 | 1013.4 |
| 20260505040948 | 17 | 97 | 0.0 | 0.0 | 0.00 | 0.00 | 0.00 | 62 | 1013.4 |
| 20260505040446 | 17 | 78 | 0.0 | 0.0 | 0.00 | 0.00 | 0.00 | 62 | 1013.4 |
| 20260505035943 | 17 | 65 | 0.0 | 0.0 | 0.00 | 0.00 | 0.00 | 62 | 1013.5 |
| 20260505035439 | 17 | 102 | 0.0 | 0.0 | 0.00 | 0.00 | 0.00 | 62 | 1013.4 |
| 20260505034936 | 17 | 82 | 0.0 | 0.0 | 0.00 | 0.00 | 0.00 | 61 | 1013.4 |
| 20260505034432 | 17 | 89 | 0.0 | 0.0 | 0.00 | 0.00 | 0.00 | 61 | 1013.6 |
| 20260505033930 | 17 | 84 | 0.0 | 0.0 | 0.00 | 0.00 | 0.00 | 60 | 1013.6 |
| 20260505033426 | 17 | 90 | 0.0 | 0.0 | 0.00 | 0.00 | 0.00 | 60 | 1013.6 |
| 20260505032924 | 18 | 92 | 0.0 | 0.0 | 0.00 | 0.00 | 0.00 | 59 | 1013.5 |
| 20260505032421 | 18 | 68 | 0.0 | 0.0 | 0.00 | 0.00 | 0.00 | 59 | 1013.5 |
| 20260505031918 | 18 | 95 | 0.0 | 0.0 | 0.00 | 0.00 | 0.00 | 58 | 1013.7 |
| 20260505031415 | 18 | 68 | 0.0 | 0.0 | 0.00 | 0.00 | 0.00 | 58 | 1013.7 |
| 20260505030912 | 18 | 114 | 0.0 | 0.0 | 0.00 | 0.00 | 0.00 | 58 | 1013.4 |
| 20260505030408 | 18 | 103 | 1.6 | 1.6 | 0.00 | 0.00 | 0.00 | 58 | 1013.7 |
| 20260505025903 | 18 | 150 | 0.0 | 1.6 | 0.00 | 0.00 | 0.00 | 57 | 1013.8 |
| 20260505025401 | 19 | 89 | 0.0 | 0.0 | 0.00 | 0.00 | 0.00 | 56 | 1013.6 |
| 20260505024900 | 19 | 133 | 0.0 | 1.6 | 0.00 | 0.00 | 0.00 | 55 | 1013.7 |
| 20260505024357 | 19 | 179 | 1.6 | 1.6 | 0.00 | 0.00 | 0.00 | 55 | 1013.7 |
| 20260505023854 | 20 | 175 | 1.6 | 1.6 | 0.00 | 0.00 | 0.00 | 56 | 1013.7 |
| 20260505023351 | 20 | 87 | 0.0 | 1.6 | 0.00 | 0.00 | 0.00 | 55 | 1013.7 |
| 20260505022848 | 20 | 185 | 3.2 | 3.2 | 0.00 | 0.00 | 0.00 | 54 | 1013.9 |
| 20260505022345 | 20 | 144 | 0.0 | 0.0 | 0.00 | 0.00 | 0.00 | 53 | 1013.7 |
| 20260505021842 | 20 | 183 | 1.6 | 1.6 | 0.00 | 0.00 | 0.00 | 53 | 1013.5 |
| 20260505021338 | 20 | 193 | 1.6 | 1.6 | 0.00 | 0.00 | 0.00 | 53 | 1013.8 |
| 20260505020834 | 20 | 139 | 1.6 | 1.6 | 0.00 | 0.00 | 0.00 | 52 | 1013.7 |
| 20260505020330 | 20 | 223 | 1.6 | 1.6 | 0.00 | 0.00 | 0.00 | 52 | 1013.8 |
| 20260505015827 | 20 | 155 | 0.0 | 1.6 | 0.00 | 0.00 | 0.00 | 52 | 1013.5 |
| 20260505015324 | 20 | 164 | 0.0 | 1.6 | 0.00 | 0.00 | 0.00 | 54 | 1013.2 |
| 20260505014821 | 20 | 138 | 0.0 | 1.6 | 0.00 | 0.00 | 0.00 | 53 | 1013.5 |
| 20260505014318 | 21 | 157 | 1.6 | 3.2 | 0.00 | 0.00 | 0.00 | 53 | 1013.3 |
| 20260505013815 | 21 | 106 | 1.6 | 1.6 | 0.00 | 0.00 | 0.00 | 53 | 1013.3 |
| 20260505013312 | 21 | 239 | 1.6 | 1.6 | 0.00 | 0.00 | 0.00 | 53 | 1013.3 |
| 20260505012811 | 21 | 150 | 1.6 | 1.6 | 0.00 | 0.00 | 0.00 | 55 | 1013.3 |
| 20260505012308 | 21 | 212 | 3.2 | 3.2 | 0.00 | 0.00 | 0.00 | 54 | 1013.3 |
| 20260505011803 | 21 | 192 | 3.2 | 4.8 | 0.00 | 0.00 | 0.00 | 55 | 1013.0 |
| 20260505011301 | 21 | 146 | 1.6 | 3.2 | 0.00 | 0.00 | 0.00 | 56 | 1012.8 |
| 20260505010756 | 21 | 198 | 3.2 | 4.8 | 0.00 | 0.00 | 0.00 | 56 | 1013.0 |
| 20260505010253 | 20 | 194 | 1.6 | 1.6 | 0.00 | 0.00 | 0.00 | 57 | 1013.1 |
| 20260505005749 | 20 | 169 | 0.0 | 1.6 | 0.00 | 0.00 | 0.00 | 58 | 1013.0 |
| 20260505005246 | 21 | 172 | 1.6 | 1.6 | 0.00 | 0.00 | 0.00 | 57 | 1012.8 |
| 20260505004743 | 21 | 177 | 1.6 | 3.2 | 0.00 | 0.00 | 0.00 | 57 | 1012.8 |
| 20260505004239 | 21 | 210 | 1.6 | 1.6 | 0.00 | 0.00 | 0.00 | 57 | 1012.8 |
| 20260505003737 | 21 | 258 | 0.0 | 1.6 | 0.00 | 0.00 | 0.00 | 56 | 1012.8 |
| 20260505003234 | 21 | 25 | 1.6 | 1.6 | 0.00 | 0.00 | 0.00 | 56 | 1013.0 |
| 20260505002731 | 21 | 235 | 0.0 | 1.6 | 0.00 | 0.00 | 0.00 | 55 | 1012.8 |
| 20260505002228 | 21 | 256 | 3.2 | 3.2 | 0.00 | 0.00 | 0.00 | 54 | 1012.8 |
| 20260505001725 | 21 | 199 | 0.0 | 1.6 | 0.00 | 0.00 | 0.00 | 54 | 1012.9 |
| 20260505001223 | 21 | 234 | 3.2 | 3.2 | 0.00 | 0.00 | 0.00 | 53 | 1012.7 |
| 20260505000720 | 21 | 197 | 4.8 | 8.0 | 0.00 | 0.00 | 0.00 | 54 | 1012.9 |
| 20260505000218 | 22 | 349 | 1.6 | 1.6 | 0.00 | 0.00 | 0.00 | 53 | 1012.9 |
| 20260504235714 | 22 | 147 | 1.6 | 1.6 | 0.00 | 0.00 | 0.00 | 52 | 1012.9 |
| 20260504235210 | 22 | 180 | 1.6 | 3.2 | 0.00 | 0.00 | 0.00 | 54 | 1012.9 |
| 20260504234708 | 22 | 161 | 0.0 | 0.0 | 0.00 | 0.00 | 0.00 | 54 | 1012.8 |
| 20260504234204 | 22 | 199 | 1.6 | 1.6 | 0.00 | 0.00 | 0.00 | 54 | 1012.8 |
| 20260504233700 | 22 | 307 | 1.6 | 1.6 | 0.00 | 0.00 | 0.00 | 55 | 1012.9 |
| 20260504233156 | 22 | 141 | 1.6 | 3.2 | 0.00 | 0.00 | 0.00 | 53 | 1013.0 |
| 20260504232654 | 22 | 148 | 0.0 | 1.6 | 0.00 | 0.00 | 0.00 | 54 | 1012.8 |
| 20260504232151 | 22 | 106 | 0.0 | 0.0 | 0.00 | 0.00 | 0.00 | 54 | 1012.6 |
| 20260504231648 | 22 | 146 | 0.0 | 0.0 | 0.00 | 0.00 | 0.00 | 54 | 1012.7 |
| 20260504231144 | 22 | 151 | 0.0 | 0.0 | 0.00 | 0.00 | 0.00 | 54 | 1012.7 |
| 20260504230640 | 22 | 146 | 0.0 | 0.0 | 0.00 | 0.00 | 0.00 | 53 | 1012.4 |
| 20260504230139 | 22 | 135 | 1.6 | 1.6 | 0.00 | 0.00 | 0.00 | 53 | 1012.7 |
| 20260504225637 | 22 | 150 | 1.6 | 3.2 | 0.00 | 0.00 | 0.00 | 52 | 1012.8 |
| 20260504225133 | 22 | 172 | 3.2 | 3.2 | 0.00 | 0.00 | 0.00 | 53 | 1012.7 |
| 20260504224630 | 22 | 91 | 1.6 | 1.6 | 0.00 | 0.00 | 0.00 | 53 | 1012.6 |
| 20260504224127 | 22 | 136 | 0.0 | 0.0 | 0.00 | 0.00 | 0.00 | 51 | 1012.8 |
| 20260504223624 | 22 | 174 | 1.6 | 1.6 | 0.00 | 0.00 | 0.00 | 52 | 1012.6 |
| 20260504223120 | 22 | 148 | 1.6 | 1.6 | 0.00 | 0.00 | 0.00 | 51 | 1012.7 |
| 20260504222617 | 22 | 178 | 1.6 | 1.6 | 0.00 | 0.00 | 0.00 | 50 | 1012.7 |
| 20260504222114 | 22 | 275 | 3.2 | 3.2 | 0.00 | 0.00 | 0.00 | 49 | 1012.3 |
| 20260504221611 | 23 | 176 | 4.8 | 8.0 | 0.00 | 0.00 | 0.00 | 50 | 1012.7 |
| 20260504221108 | 23 | 212 | 3.2 | 3.2 | 0.00 | 0.00 | 0.00 | 49 | 1012.6 |
| 20260504220604 | 23 | 164 | 3.2 | 3.2 | 0.00 | 0.00 | 0.00 | 48 | 1012.3 |
| 20260504215558 | 23 | 122 | 0.0 | 1.6 | 0.00 | 0.00 | 0.00 | 48 | 1012.7 |
| 20260504215055 | 23 | 166 | 1.6 | 3.2 | 0.00 | 0.00 | 0.00 | 47 | 1012.4 |
| 20260504214551 | 23 | 231 | 9.7 | 11.3 | 0.00 | 0.00 | 0.00 | 46 | 1012.4 |
| 20260504214048 | 23 | 167 | 4.8 | 4.8 | 0.00 | 0.00 | 0.00 | 46 | 1012.6 |
| 20260504213544 | 23 | 176 | 4.8 | 8.0 | 0.00 | 0.00 | 0.00 | 46 | 1012.7 |
| 20260504213041 | 23 | 228 | 1.6 | 3.2 | 0.00 | 0.00 | 0.00 | 46 | 1012.3 |
| 20260504212537 | 23 | 193 | 1.6 | 3.2 | 0.00 | 0.00 | 0.00 | 45 | 1012.4 |
| 20260504212035 | 23 | 188 | 4.8 | 4.8 | 0.00 | 0.00 | 0.00 | 45 | 1012.6 |
| 20260504211531 | 23 | 134 | 0.0 | 1.6 | 0.00 | 0.00 | 0.00 | 45 | 1012.6 |
| 20260504211028 | 23 | 153 | 1.6 | 1.6 | 0.00 | 0.00 | 0.00 | 46 | 1012.7 |
| 20260504210525 | 23 | 165 | 4.8 | 8.0 | 0.00 | 0.00 | 0.00 | 44 | 1012.3 |
| 20260504210022 | 23 | 192 | 4.8 | 8.0 | 0.00 | 0.00 | 0.00 | 46 | 1012.7 |
| 20260504205520 | 23 | 223 | 3.2 | 3.2 | 0.00 | 0.00 | 0.00 | 47 | 1012.7 |
| 20260504205018 | 23 | 212 | 4.8 | 4.8 | 0.00 | 0.00 | 0.00 | 50 | 1012.9 |
| 20260504204515 | 23 | 175 | 1.6 | 3.2 | 0.00 | 0.00 | 0.00 | 51 | 1013.3 |
| 20260504204014 | 23 | 174 | 4.8 | 4.8 | 0.00 | 0.00 | 0.00 | 51 | 1013.0 |
| 20260504203512 | 23 | 243 | 3.2 | 3.2 | 0.00 | 0.00 | 0.00 | 51 | 1013.3 |
| 20260504203009 | 23 | 160 | 3.2 | 3.2 | 0.00 | 0.00 | 0.00 | 50 | 1013.3 |
| 20260504202504 | 23 | 186 | 4.8 | 4.8 | 0.00 | 0.00 | 0.00 | 50 | 1013.0 |
| 20260504202001 | 23 | 154 | 3.2 | 3.2 | 0.00 | 0.00 | 0.00 | 50 | 1013.2 |
| 20260504201458 | 23 | 186 | 1.6 | 1.6 | 0.00 | 0.00 | 0.00 | 51 | 1013.0 |
| 20260504200956 | 23 | 176 | 4.8 | 4.8 | 0.00 | 0.00 | 0.00 | 51 | 1013.5 |
| 20260504200453 | 23 | 161 | 8.0 | 9.7 | 0.00 | 0.00 | 0.00 | 51 | 1013.4 |
| 20260504195949 | 23 | 182 | 6.4 | 8.0 | 0.00 | 0.00 | 0.00 | 51 | 1013.4 |
| 20260504195445 | 23 | 123 | 0.0 | 0.0 | 0.00 | 0.00 | 0.00 | 53 | 1013.6 |
| 20260504194942 | 23 | 151 | 1.6 | 3.2 | 0.00 | 0.00 | 0.00 | 52 | 1013.7 |
| 20260504194438 | 23 | 264 | 6.4 | 8.0 | 0.00 | 0.00 | 0.00 | 52 | 1013.7 |
| 20260504193934 | 23 | 139 | 1.6 | 1.6 | 0.00 | 0.00 | 0.00 | 52 | 1014.0 |
| 20260504193431 | 23 | 193 | 8.0 | 9.7 | 0.00 | 0.00 | 0.00 | 52 | 1013.9 |
| 20260504192930 | 23 | 326 | 1.6 | 1.6 | 0.00 | 0.00 | 0.00 | 53 | 1013.9 |
| 20260504192427 | 23 | 180 | 3.2 | 4.8 | 0.00 | 0.00 | 0.00 | 53 | 1014.0 |
| 20260504191926 | 23 | 185 | 6.4 | 9.7 | 0.00 | 0.00 | 0.00 | 51 | 1014.0 |
| 20260504191424 | 22 | 173 | 3.2 | 3.2 | 0.00 | 0.00 | 0.00 | 54 | 1014.2 |
| 20260504190919 | 22 | 110 | 0.0 | 1.6 | 0.00 | 0.00 | 0.00 | 54 | 1014.4 |
| 20260504190414 | 22 | 184 | 4.8 | 8.0 | 0.00 | 0.00 | 0.00 | 54 | 1014.7 |
| 20260504185911 | 22 | 207 | 1.6 | 1.6 | 0.00 | 0.00 | 0.00 | 54 | 1014.7 |
| 20260504185409 | 22 | 183 | 3.2 | 4.8 | 0.00 | 0.00 | 0.00 | 52 | 1014.8 |
| 20260504184904 | 22 | 140 | 3.2 | 4.8 | 0.00 | 0.00 | 0.00 | 52 | 1014.8 |
| 20260504184400 | 22 | 223 | 1.6 | 3.2 | 0.00 | 0.00 | 0.00 | 53 | 1014.7 |
| 20260504183856 | 22 | 10 | 1.6 | 3.2 | 0.00 | 0.00 | 0.00 | 52 | 1014.8 |
| 20260504183354 | 22 | 214 | 1.6 | 3.2 | 0.00 | 0.00 | 0.00 | 52 | 1014.8 |
| 20260504182851 | 22 | 164 | 3.2 | 3.2 | 0.00 | 0.00 | 0.00 | 51 | 1014.9 |
| 20260504182348 | 22 | 263 | 3.2 | 3.2 | 0.00 | 0.00 | 0.00 | 53 | 1015.1 |
| 20260504181845 | 22 | 39 | 1.6 | 1.6 | 0.00 | 0.00 | 0.00 | 53 | 1015.3 |